sat.trackr.live / text

‹ back to catalog

STARLINK-30396

NORAD 57964 · 2023-151A

PAYLOAD ACTIVE UNKNOWN

§ Identity

Operator
Country
US
Launch date
2023-09-30
Launch site
AFETR
Launch vehicle
Mass (kg)
RCS (m²)

Purposes: comms

External: N2YO · Heavens-Above · Gunter

§ Orbital elements

Epoch: 2026-09-20T20:57:21.615840Z

Period
94.27 min
Inclination
43.0042°
Eccentricity
0.0001333
Mean motion
15.27576571 rev/d
Perigee alt
482.1 km
Apogee alt
484.0 km
Semi-major
6,861.2 km
B*
2.1396e-5
RAAN
314.0230°
Arg perigee
252.3816°
Mean anomaly
107.6890°
Rev number
16,561

§ Raw data

STARLINK-303961 57964U 23151A   26263.87316685  .00000327  00000+0  21396-4 0  99922 57964  43.0042 314.0230 0001333 252.3816 107.6890 15.27576571165612

JSON: /api/v1/satellites/57964 · /tle

For live sub-satellite position, see the globe view (requires WebGL).

§ Visibility from observer

Set your observer location to see the next 7 days of passes ≥ 10°. The values pass through the URL so the page stays shareable.

No JS? Fill the form by hand. The geolocation button needs JavaScript.